星链-32756 (STARLINK-32756)

导读

STARLINK-32756是美国太空探索技术公司(SpaceX)星链互联网星座的成员卫星,于2025年1月21日发射入轨,归属美国。星链项目旨在通过低轨卫星组网,为全球提供覆盖广泛的高速卫星互联网服务,该卫星是星链大规模部署计划中的组成单元,承担星座组网运行中部分通信转发功能,助力全球网络覆盖能力拓展。

Basic Information
目录编号:
62752
目录名称:
STARLINK-32756
国际标识:
2025-014T
轨道中心:
EARTH
卫星名称:
星链-32756
卫星全名:
星链-32756 (STARLINK-32756)
卫星状态:
在轨 (已飞行591 天)
发射日期:
2025-01-21 UTC
国别 :
美国 (US)
星等 :
--
Orbit Information
数据来源 国际轨道数据
星历时间: 2026-09-04T00:15:32+0800
1天前
查看轨道信息
半长轴: 6861.183km
偏心率: 0.0001355
轨道倾角: 43.002°
近地点辐角 274.607°
升交点赤经 229.609°
平近点角 85.462°
近地点: 482.116km
远地点: 483.976km
周期: 94.267分钟
每日圈数: 15.275813
Detailed Information
固有亮度:
5
最大亮度:
2.5
卫星平台:
Starlink V1.0
覆盖范围:
全球
运营商:
太空探索技术公司
运营商所在国:
美国
制造商(研发单位):
太空探索技术公司
制造商所在国:
美国
使用方式:
暂无
Satellite Introduction
Starlink 计划是 SpaceX 推出的全球卫星互联网项目,通过发射低轨道卫星,为全球尤其是偏远地区提供高速、低延迟的互联网服务。自 2019 年起,Starlink 已部署数千颗卫星,旨在缩小全球数字鸿沟,推动互联网普及。该项目还为军事、航空等行业提供通信支持,带来广泛经济效益。
2D Orbit Map
3D Orbit Map
Orbit Altitude Analysis Chart
Orbit Inclination Analysis Chart
Orbit Comprehensive Analysis Chart
View Comprehensive Chart
Conjunction Data List
Event ID Objects TCA Miss Dist (km) Collision Risk Probability Collision Risk Index (CRI) Action
CDM_260906-212205-941806-275221
2026-09-06T
21:22:00+0000
0.406 km
远距离
2.25241E-4 高风险 0.82
CDM_260906-231405-930906-275221
2026-09-06T
23:14:06+0000
0.401 km
远距离
2.017156E-4 高风险 0.81
CDM_260906-090905-741506-275221
2026-09-06T
09:09:16+0000
0.864 km
远距离
2.786302E-5 中风险 0.64
CDM_260906-073505-741506-275221
2026-09-06T
07:35:07+0000
0.979 km
远距离
1.823466E-5 中风险 0.6
CDM_260906-071606-275206-430821
2026-09-06T
07:16:41+0000
1.295 km
极远距离
8.955677E-6 低风险 0.54
CDM_260905-012706-275206-430821
2026-09-05T
01:27:03+0000
2.235 km
极远距离
1.847971E-6 低风险 0.4
CDM_260906-014706-275206-430821
2026-09-06T
01:47:00+0000
2.312 km
极远距离
1.70749E-6 低风险 0.4
CDM_260907-004805-930906-275221
2026-09-07T
00:48:15+0000
2.126 km
极远距离
1.443136E-6 低风险 0.38
CDM_260906-194705-941806-275221
2026-09-06T
19:47:51+0000
2.307 km
极远距离
1.406448E-6 低风险 0.38
CDM_260906-225605-941806-275221
2026-09-06T
22:56:09+0000
2.369 km
极远距离
1.336064E-6 低风险 0.38